Wakefield, VA

8:42 AM EST on December 16, 2019 (GMT -0500)
Wakefield Municipal

Weather History for KAKQ - October, 2019

Change the Weather History Date:

Wednesday, October 16, 2019

  Actual Average (KJGG) Record (KJGG)
Temperature  
Mean Temperature 60 °F -  
Max Temperature 66 °F 73 °F 87 °F (2008)
Min Temperature 53 °F 48 °F 33 °F (1987)
Degree Days  
Heating Degree Days 6    
Growing Degree Days 10 (Base 50)    
Moisture  
Dew Point 58 °F    
Average Humidity 91    
Maximum Humidity 100    
Minimum Humidity 61    
Precipitation  
Precipitation 1.33 in - - ()
Sea Level Pressure  
Sea Level Pressure 29.76 in    
Wind  
Wind Speed 2 mph (West)    
Max Wind Speed 10 mph    
Max Gust Speed 22 mph    
Visibility 4 miles    
Events Fog , Rain    
Averages and records for this station are not official NWS values.
T = Trace of Precipitation, MM = Missing Value Source: NWS Daily Summary

Daily Weather History Graph

Daily Weather History Graph

Search for Another Location

Airport or City:

Astronomy

Oct. 16, 2019 Rise Set
Actual Time 7:16 AM EDT 6:30 PM EDT
Civil Twilight 6:50 AM EDT 6:56 PM EDT
Nautical Twilight 6:20 AM EDT 7:26 PM EDT
Astronomical Twilight 5:49 AM EDT 7:56 PM EDT
Moon 8:25 PM EDT 9:42 AM EDT
Length of Visible Light 12h 06m
Length of Day
11h 13m
Waning Gibbous, 93% of the Moon is Illuminated
Oct 16
Waning Gibbous
Oct 21
Last Quarter
Oct 27
New
Nov 4
First Quarter
Nov 12
Full

Hourly Weather History & Observations

Time (EDT) Temp. Dew Point Humidity Pressure Visibility Wind Dir Wind Speed Gust Speed Precip Events Conditions
12:54 AM 59.0 °F 57.0 °F 93% 30.01 in 4.0 mi Calm Calm - N/A   Clear
1:31 AM 59.0 °F 57.0 °F 93% 30.00 in 1.8 mi Calm Calm - N/A   Clear
1:46 AM 59.0 °F 57.0 °F 93% 29.99 in 3.0 mi Calm Calm - N/A   Clear
1:49 AM 57.2 °F 57.2 °F 100% 29.99 in 1.5 mi Calm Calm - N/A   Clear
1:54 AM 57.9 °F 55.9 °F 93% 29.99 in 1.2 mi Calm Calm - N/A   Clear
2:15 AM 57.0 °F 55.9 °F 96% 29.98 in 0.5 mi Calm Calm - N/A Fog Fog
2:28 AM 55.9 °F 55.0 °F 97% 29.98 in 1.5 mi Calm Calm - N/A   Clear
2:37 AM 57.0 °F 55.0 °F 93% 29.98 in 0.8 mi Calm Calm - N/A   Clear
2:54 AM 55.9 °F 54.0 °F 93% 29.96 in 0.5 mi Calm Calm - N/A Fog Fog
3:09 AM 55.9 °F 54.0 °F 93% 29.96 in 2.0 mi Calm Calm - N/A   Clear
3:17 AM 55.9 °F 54.0 °F 93% 29.95 in 0.8 mi Calm Calm - N/A   Clear
3:30 AM 55.9 °F 55.0 °F 97% 29.94 in 0.5 mi Calm Calm - N/A Fog Fog
3:36 AM 55.9 °F 54.0 °F 93% 29.94 in 1.0 mi Calm Calm - N/A   Clear
3:42 AM 55.9 °F 54.0 °F 93% 29.94 in 3.0 mi Calm Calm - N/A   Clear
3:54 AM 55.9 °F 55.0 °F 97% 29.94 in 4.0 mi Calm Calm - N/A   Clear
4:04 AM 55.9 °F 54.0 °F 93% 29.94 in 1.2 mi Calm Calm - N/A   Clear
4:11 AM 55.9 °F 54.0 °F 93% 29.94 in 0.2 mi Calm Calm - N/A Fog Fog
4:19 AM 57.0 °F 55.0 °F 93% 29.94 in 1.0 mi Calm Calm - N/A   Clear
4:22 AM 57.0 °F 55.0 °F 93% 29.93 in 4.0 mi Calm Calm - N/A   Clear
4:39 AM 55.9 °F 54.0 °F 93% 29.93 in 2.0 mi Calm Calm - N/A   Clear
4:54 AM 57.0 °F 55.0 °F 93% 29.92 in 2.5 mi Calm Calm - N/A   Clear
5:01 AM 57.0 °F 55.9 °F 96% 29.91 in 5.0 mi Calm Calm - N/A   Partly Cloudy
5:54 AM 61.0 °F 59.0 °F 93% 29.89 in 8.0 mi Calm Calm - N/A   Scattered Clouds
6:54 AM 61.0 °F 59.0 °F 93% 29.88 in 7.0 mi Calm Calm - 0.00 in Rain Light Rain
7:54 AM 61.0 °F 59.0 °F 93% 29.86 in 2.0 mi Variable 4.6 mph - 0.04 in Rain Heavy Rain
8:05 AM 61.0 °F 60.1 °F 97% 29.84 in 1.2 mi Variable 3.5 mph - 0.05 in Rain Heavy Rain
8:54 AM 62.1 °F 60.1 °F 93% 29.82 in 1.2 mi Calm Calm - 0.17 in Rain Heavy Rain
9:16 AM 62.1 °F 60.1 °F 93% 29.80 in 0.8 mi Calm Calm - 0.10 in Rain Heavy Rain
9:23 AM 62.1 °F 60.1 °F 93% 29.80 in 1.0 mi Calm Calm - 0.13 in Rain Heavy Rain
9:31 AM 62.1 °F 60.1 °F 93% 29.80 in 1.0 mi Calm Calm - 0.18 in Rain Heavy Rain
9:44 AM 62.1 °F 61.0 °F 96% 29.79 in 1.5 mi Variable 4.6 mph - 0.24 in Rain Heavy Rain
9:51 AM 62.6 °F 60.8 °F 94% 29.79 in 1.8 mi Calm Calm - 0.26 in Rain Heavy Rain
9:54 AM 63.0 °F 61.0 °F 93% 29.78 in 2.0 mi Calm Calm - 0.28 in Rain Heavy Rain
10:07 AM 63.0 °F 62.1 °F 97% 29.77 in 1.5 mi Calm Calm - 0.04 in Rain Heavy Rain
10:54 AM 64.0 °F 62.1 °F 93% 29.72 in 2.5 mi ESE 3.5 mph - 0.15 in Rain Rain
10:57 AM 64.0 °F 62.1 °F 93% 29.72 in 3.0 mi Calm Calm - 0.00 in Rain Light Rain
11:13 AM 64.9 °F 63.0 °F 93% 29.70 in 6.0 mi Variable 3.5 mph - 0.00 in   Overcast
11:30 AM 64.9 °F 63.0 °F 93% 29.69 in 5.0 mi Calm Calm - 0.00 in Rain Light Rain
11:40 AM 64.9 °F 63.0 °F 93% 29.68 in 1.8 mi SSE 3.5 mph - 0.03 in Rain Heavy Rain
12:04 PM 64.9 °F 63.0 °F 93% 29.65 in 1.8 mi Variable 4.6 mph - 0.03 in Rain Heavy Rain
12:13 PM 66.0 °F 63.0 °F 90% 29.64 in 3.0 mi Variable 6.9 mph - 0.06 in Rain Light Rain
12:28 PM 66.0 °F 64.0 °F 93% 29.62 in 1.8 mi Variable 5.8 mph - 0.08 in Rain Heavy Rain
12:43 PM 66.0 °F 64.0 °F 93% 29.60 in 2.5 mi Variable 4.6 mph 16.1 mph 0.13 in Rain Rain
12:54 PM 66.0 °F 64.0 °F 93% 29.59 in 2.5 mi SSE 8.1 mph - 0.16 in Rain Rain
1:13 PM 66.0 °F 64.0 °F 93% 29.57 in 1.5 mi SSE 9.2 mph - 0.07 in Rain Heavy Rain
1:28 PM 66.0 °F 64.0 °F 93% 29.56 in 1.0 mi South 5.8 mph 16.1 mph 0.15 in Rain Heavy Rain
2:03 PM 66.0 °F 64.0 °F 93% 29.53 in 1.2 mi Variable 5.8 mph - 0.05 in Rain Heavy Rain
2:16 PM 66.9 °F 64.9 °F 93% 29.53 in 0.8 mi SSW 6.9 mph - 0.18 in Rain Heavy Rain
2:43 PM 61.0 °F 57.9 °F 90% 29.55 in 1.5 mi WNW 8.1 mph 21.9 mph 0.45 in Rain Heavy Rain
2:51 PM 60.8 °F 57.2 °F 88% 29.55 in 2.0 mi NW 9.2 mph - 0.49 in Rain Rain
2:52 PM 60.1 °F 57.0 °F 90% 29.55 in 2.0 mi NW 9.2 mph - 0.49 in Rain Rain
3:00 PM 59.0 °F 57.0 °F 93% 29.55 in 4.0 mi Variable 3.5 mph - 0.01 in Rain Rain
3:54 PM 60.1 °F 57.9 °F 93% 29.53 in 10.0 mi NW 3.5 mph - 0.04 in   Mostly Cloudy
4:05 PM 60.1 °F 57.9 °F 93% 29.54 in 10.0 mi West 10.4 mph - 0.00 in   Mostly Cloudy
4:26 PM 61.0 °F 57.9 °F 90% 29.54 in 10.0 mi West 6.9 mph - 0.00 in   Mostly Cloudy
4:51 PM 62.6 °F 57.2 °F 82% 29.53 in 10.0 mi West 9.2 mph - 0.00 in   Scattered Clouds
4:54 PM 61.0 °F 57.0 °F 87% 29.54 in 10.0 mi West 10.4 mph - 0.00 in   Scattered Clouds
5:54 PM 62.1 °F 57.0 °F 84% 29.54 in 10.0 mi West 5.8 mph - N/A   Scattered Clouds
6:54 PM 60.1 °F 55.9 °F 86% 29.56 in 10.0 mi WNW 6.9 mph - N/A   Clear
7:05 PM - - N/A% - - North - - N/A   Unknown
7:54 PM 57.9 °F 55.0 °F 90% 29.58 in 10.0 mi WSW 3.5 mph - N/A   Clear
8:54 PM 59.0 °F 55.0 °F 87% 29.62 in 10.0 mi West 6.9 mph - N/A   Mostly Cloudy
9:54 PM 55.9 °F 48.9 °F 77% 29.65 in 10.0 mi West 5.8 mph - N/A   Clear
10:54 PM 53.1 °F 42.1 °F 66% 29.67 in 10.0 mi West 5.8 mph - N/A   Clear
11:54 PM 53.1 °F 39.9 °F 61% 29.69 in 10.0 mi West 10.4 mph - N/A   Clear